Time,TemperatureF,DewpointF,PressureIn,WindDirection,WindDirectionDegrees,WindSpeedMPH,WindSpeedGustMPH,Humidity,HourlyPrecipIn,Conditions,Clouds,dailyrainin,SolarRadiationWatts/m^2,SoftwareType,DateUTC
2013-08-06 00:00:00,66.8,65.0,30.04,ESE,104,0.0,2.0,94,0.00,,---,0.00,0.00,VWS V14.01,2013-08-06 04:00:00,
2013-08-06 00:01:00,66.8,65.0,30.03,East,80,0.0,2.0,94,0.00,,---,0.00,0.00,VWS V14.01,2013-08-06 04:01:00,
2013-08-06 00:02:00,66.8,65.0,30.03,ESE,104,0.0,2.0,94,0.00,,---,0.00,0.00,VWS V14.01,2013-08-06 04:02:00,
2013-08-06 00:07:00,66.8,65.0,30.04,ENE,75,0.0,1.0,94,0.00,,---,0.00,0.00,VWS V14.01,2013-08-06 04:07:00,
2013-08-06 00:12:00,66.7,64.9,30.03,SSW,198,0.0,2.0,94,0.00,,---,0.00,0.00,VWS V14.01,2013-08-06 04:12:00,
2013-08-06 00:17:00,66.7,64.9,30.03,SSE,152,0.0,2.0,94,0.00,,---,0.00,0.00,VWS V14.01,2013-08-06 04:17:00,
2013-08-06 00:22:00,66.7,64.9,30.03,SSE,153,0.0,2.0,94,0.00,,---,0.00,0.00,VWS V14.01,2013-08-06 04:22:00,
2013-08-06 00:27:00,66.6,64.8,30.03,SSE,153,0.0,2.0,94,0.00,,---,0.00,0.00,VWS V14.01,2013-08-06 04:27:00,
2013-08-06 00:30:00,66.6,64.8,30.02,East,98,3.0,3.0,94,0.00,,---,0.00,0.00,VWS V14.01,2013-08-06 04:30:00,
2013-08-06 00:32:00,66.6,64.8,30.02,SE,140,0.0,2.0,94,0.00,,---,0.00,0.00,VWS V14.01,2013-08-06 04:32:00,
2013-08-06 00:37:00,66.6,64.8,30.02,East,101,0.0,3.0,94,0.00,,---,0.00,0.00,VWS V14.01,2013-08-06 04:37:00,
2013-08-06 00:42:00,66.6,64.8,30.02,South,173,0.0,3.0,94,0.00,,---,0.00,0.00,VWS V14.01,2013-08-06 04:42:00,
2013-08-06 00:47:00,66.5,64.7,30.02,South,174,0.0,3.0,94,0.00,,---,0.00,0.00,VWS V14.01,2013-08-06 04:47:00,
2013-08-06 00:52:00,66.5,64.7,30.02,SE,137,0.0,4.0,94,0.00,,---,0.00,0.00,VWS V14.01,2013-08-06 04:52:00,
2013-08-06 00:58:00,66.5,64.7,30.02,SE,139,0.0,4.0,94,0.00,,---,0.00,0.00,VWS V14.01,2013-08-06 04:58:00,
2013-08-06 01:00:00,66.5,64.7,30.02,SE,142,1.0,4.0,94,0.00,,---,0.00,0.00,VWS V14.01,2013-08-06 05:00:00,
2013-08-06 01:03:00,66.5,64.7,30.02,SE,142,0.0,4.0,94,0.00,,---,0.00,0.00,VWS V14.01,2013-08-06 05:03:00,
2013-08-06 01:08:00,66.5,64.7,30.02,South,184,0.0,1.0,94,0.00,,---,0.00,0.00,VWS V14.01,2013-08-06 05:08:00,
2013-08-06 01:13:00,66.5,64.7,30.03,SW,225,0.0,3.0,94,0.00,,---,0.00,0.00,VWS V14.01,2013-08-06 05:13:00,
2013-08-06 01:18:00,66.5,64.7,30.03,SW,236,1.0,3.0,94,0.00,,---,0.00,0.00,VWS V14.01,2013-08-06 05:18:00,
2013-08-06 01:23:00,66.5,64.7,30.02,South,187,0.0,3.0,94,0.00,,---,0.00,0.00,VWS V14.01,2013-08-06 05:23:00,
2013-08-06 01:28:00,66.5,64.7,30.02,ESE,104,0.0,3.0,94,0.00,,---,0.00,0.00,VWS V14.01,2013-08-06 05:28:00,
2013-08-06 01:30:00,66.5,64.7,30.03,SE,141,0.0,3.0,94,0.00,,---,0.00,0.00,VWS V14.01,2013-08-06 05:30:00,
2013-08-06 01:33:00,66.5,64.7,30.03,SE,141,0.0,0.0,94,0.00,,---,0.00,0.00,VWS V14.01,2013-08-06 05:33:00,
2013-08-06 01:39:00,66.5,64.7,30.03,SSE,159,0.0,2.0,94,0.00,,---,0.00,0.00,VWS V14.01,2013-08-06 05:39:00,
2013-08-06 01:44:00,66.6,64.8,30.03,South,190,0.0,5.0,94,0.00,,---,0.00,0.00,VWS V14.01,2013-08-06 05:44:00,
2013-08-06 01:49:00,66.5,64.7,30.02,WSW,238,0.0,5.0,94,0.00,,---,0.00,0.00,VWS V14.01,2013-08-06 05:49:00,
2013-08-06 01:54:00,66.6,64.8,30.03,SW,235,0.0,5.0,94,0.00,,---,0.00,0.00,VWS V14.01,2013-08-06 05:54:00,
2013-08-06 01:59:00,66.6,64.8,30.02,North,9,0.0,5.0,94,0.00,,---,0.00,0.00,VWS V14.01,2013-08-06 05:59:00,
2013-08-06 02:00:00,66.6,64.8,30.02,SW,227,0.0,5.0,94,0.00,,---,0.00,0.00,VWS V14.01,2013-08-06 06:00:00,
2013-08-06 02:04:00,66.6,64.8,30.02,SW,227,0.0,0.0,94,0.00,,---,0.00,0.00,VWS V14.01,2013-08-06 06:04:00,
2013-08-06 02:09:00,66.6,64.8,30.02,ENE,65,0.0,1.0,94,0.00,,---,0.00,0.00,VWS V14.01,2013-08-06 06:09:00,
2013-08-06 02:14:00,66.6,64.8,30.01,South,175,0.0,2.0,94,0.00,,---,0.00,0.00,VWS V14.01,2013-08-06 06:14:00,
2013-08-06 02:19:00,66.6,64.8,30.01,SSE,150,0.0,2.0,94,0.00,,---,0.00,0.00,VWS V14.01,2013-08-06 06:19:00,
2013-08-06 02:25:00,66.6,64.8,30.00,ESE,107,0.0,2.0,94,0.00,,---,0.00,0.00,VWS V14.01,2013-08-06 06:25:00,
2013-08-06 02:30:00,66.6,64.8,30.00,SW,215,0.0,2.0,94,0.00,,---,0.00,0.00,VWS V14.01,2013-08-06 06:30:00,
2013-08-06 02:35:00,66.6,64.8,30.01,SW,215,0.0,0.0,94,0.00,,---,0.00,0.00,VWS V14.01,2013-08-06 06:35:00,
2013-08-06 02:40:00,66.6,64.8,30.00,SW,215,0.0,0.0,94,0.00,,---,0.00,0.00,VWS V14.01,2013-08-06 06:40:00,
2013-08-06 02:45:00,66.5,64.7,30.00,SW,215,0.0,0.0,94,0.00,,---,0.00,0.00,VWS V14.01,2013-08-06 06:45:00,
2013-08-06 02:50:00,66.5,64.7,30.00,SW,215,0.0,0.0,94,0.00,,---,0.00,0.00,VWS V14.01,2013-08-06 06:50:00,
2013-08-06 02:55:00,66.5,64.7,30.00,SW,215,0.0,1.0,94,0.00,,---,0.00,0.00,VWS V14.01,2013-08-06 06:55:00,
2013-08-06 03:00:00,66.5,64.7,30.00,West,275,0.0,3.0,94,0.00,,---,0.00,0.00,VWS V14.01,2013-08-06 07:00:00,
2013-08-06 03:05:00,66.5,64.7,30.00,North,355,0.0,1.0,94,0.00,,---,0.00,0.00,VWS V14.01,2013-08-06 07:05:00,
2013-08-06 03:10:00,66.5,64.7,30.00,North,355,0.0,1.0,94,0.00,,---,0.00,0.00,VWS V14.01,2013-08-06 07:10:00,
2013-08-06 03:16:00,66.4,64.6,30.00,North,355,0.0,1.0,94,0.00,,---,0.00,0.00,VWS V14.01,2013-08-06 07:16:00,
2013-08-06 03:21:00,66.5,64.7,30.00,SW,229,0.0,2.0,94,0.00,,---,0.00,0.00,VWS V14.01,2013-08-06 07:21:00,
2013-08-06 03:26:00,66.5,64.7,30.00,SW,233,0.0,2.0,94,0.00,,---,0.00,0.00,VWS V14.01,2013-08-06 07:26:00,
2013-08-06 03:30:00,66.5,64.7,30.00,SSE,163,0.0,2.0,94,0.00,,---,0.00,0.00,VWS V14.01,2013-08-06 07:30:00,
2013-08-06 03:31:00,66.5,64.7,30.00,South,178,0.0,2.0,94,0.00,,---,0.00,0.00,VWS V14.01,2013-08-06 07:31:00,
2013-08-06 03:36:00,66.5,64.7,30.00,SSE,159,0.0,1.0,94,0.00,,---,0.00,0.00,VWS V14.01,2013-08-06 07:36:00,
2013-08-06 03:41:00,66.5,64.7,30.00,SSE,159,0.0,1.0,94,0.00,,---,0.00,0.00,VWS V14.01,2013-08-06 07:41:00,
2013-08-06 03:46:00,66.4,64.6,30.00,SSE,159,0.0,1.0,94,0.00,,---,0.00,0.00,VWS V14.01,2013-08-06 07:46:00,
2013-08-06 03:51:00,66.4,64.6,30.00,SSE,148,0.0,1.0,94,0.00,,---,0.00,0.00,VWS V14.01,2013-08-06 07:51:00,
2013-08-06 03:56:00,66.4,64.6,30.00,SSE,150,0.0,1.0,94,0.00,,---,0.00,0.00,VWS V14.01,2013-08-06 07:56:00,
2013-08-06 04:00:00,66.4,64.6,30.00,SSE,150,0.0,1.0,94,0.00,,---,0.00,0.00,VWS V14.01,2013-08-06 08:00:00,
2013-08-06 04:01:00,66.4,64.9,30.00,SSE,150,0.0,1.0,95,0.00,,---,0.00,0.00,VWS V14.01,2013-08-06 08:01:00,
2013-08-06 04:06:00,66.5,65.0,30.00,SSE,150,0.0,0.0,95,0.00,,---,0.00,0.00,VWS V14.01,2013-08-06 08:06:00,
2013-08-06 04:11:00,66.5,65.0,30.00,SSE,150,0.0,0.0,95,0.00,,---,0.00,0.00,VWS V14.01,2013-08-06 08:11:00,
2013-08-06 04:17:00,66.5,65.0,30.00,SSE,150,0.0,0.0,95,0.00,,---,0.00,0.00,VWS V14.01,2013-08-06 08:17:00,
2013-08-06 04:22:00,66.5,65.0,30.00,SSE,148,0.0,0.0,95,0.00,,---,0.00,0.00,VWS V14.01,2013-08-06 08:22:00,
2013-08-06 04:27:00,66.5,65.0,30.00,WSW,255,0.0,0.0,95,0.00,,---,0.00,0.00,VWS V14.01,2013-08-06 08:27:00,
2013-08-06 04:30:00,66.5,65.0,29.99,ENE,70,0.0,1.0,95,0.00,,---,0.00,0.00,VWS V14.01,2013-08-06 08:30:00,
2013-08-06 04:32:00,66.5,65.0,29.99,ENE,70,0.0,1.0,95,0.00,,---,0.00,0.00,VWS V14.01,2013-08-06 08:32:00,
2013-08-06 04:37:00,66.5,65.0,29.99,SSE,167,0.0,0.0,95,0.00,,---,0.00,0.00,VWS V14.01,2013-08-06 08:37:00,
2013-08-06 04:42:00,66.4,64.9,29.99,East,83,0.0,3.0,95,0.00,,---,0.00,0.00,VWS V14.01,2013-08-06 08:42:00,
2013-08-06 04:47:00,66.4,64.9,30.00,East,83,0.0,3.0,95,0.00,,---,0.00,0.00,VWS V14.01,2013-08-06 08:47:00,
2013-08-06 04:52:00,66.4,64.9,30.00,East,93,0.0,3.0,95,0.00,,---,0.00,0.00,VWS V14.01,2013-08-06 08:52:00,
2013-08-06 04:57:00,66.4,64.9,30.00,East,83,0.0,3.0,95,0.00,,---,0.00,0.00,VWS V14.01,2013-08-06 08:57:00,
2013-08-06 05:00:00,66.4,64.9,30.01,East,94,0.0,3.0,95,0.00,,---,0.00,0.00,VWS V14.01,2013-08-06 09:00:00,
2013-08-06 05:03:00,66.4,64.9,30.01,East,94,0.0,3.0,95,0.00,,---,0.00,0.00,VWS V14.01,2013-08-06 09:03:00,
2013-08-06 05:08:00,66.4,64.9,30.01,ESE,121,0.0,5.0,95,0.00,,---,0.00,0.00,VWS V14.01,2013-08-06 09:08:00,
2013-08-06 05:13:00,66.4,64.9,30.01,SE,138,0.0,5.0,95,0.00,,---,0.00,0.00,VWS V14.01,2013-08-06 09:13:00,
2013-08-06 05:18:00,66.4,64.9,30.01,SE,138,0.0,5.0,95,0.00,,---,0.00,0.00,VWS V14.01,2013-08-06 09:18:00,
2013-08-06 05:23:00,66.4,64.9,30.02,SE,138,0.0,5.0,95,0.00,,---,0.00,0.00,VWS V14.01,2013-08-06 09:23:00,
2013-08-06 05:28:00,66.5,65.0,30.02,SE,138,0.0,5.0,95,0.00,,---,0.00,0.00,VWS V14.01,2013-08-06 09:28:00,
2013-08-06 05:30:00,66.4,64.9,30.02,SE,138,0.0,5.0,95,0.00,,---,0.00,0.00,VWS V14.01,2013-08-06 09:30:00,
2013-08-06 05:33:00,66.4,64.9,30.02,SE,138,0.0,5.0,95,0.00,,---,0.00,0.00,VWS V14.01,2013-08-06 09:33:00,
2013-08-06 05:38:00,66.4,64.9,30.01,SE,138,0.0,1.0,95,0.00,,---,0.00,0.00,VWS V14.01,2013-08-06 09:38:00,
2013-08-06 05:43:00,66.4,64.9,30.01,SE,138,0.0,1.0,95,0.00,,---,0.00,0.00,VWS V14.01,2013-08-06 09:43:00,
2013-08-06 05:48:00,66.4,64.9,30.01,SE,138,0.0,1.0,95,0.00,,---,0.00,0.00,VWS V14.01,2013-08-06 09:48:00,
2013-08-06 05:54:00,66.4,64.9,30.02,SE,138,0.0,1.0,95,0.00,,---,0.00,0.00,VWS V14.01,2013-08-06 09:54:00,
2013-08-06 05:59:00,66.3,64.8,30.01,SE,138,0.0,1.0,95,0.00,,---,0.00,0.00,VWS V14.01,2013-08-06 09:59:00,
2013-08-06 06:00:00,66.3,64.8,30.01,SE,138,0.0,1.0,95,0.00,,---,0.00,0.00,VWS V14.01,2013-08-06 10:00:00,
2013-08-06 06:04:00,66.3,64.8,30.01,SE,138,0.0,0.0,95,0.00,,---,0.00,0.00,VWS V14.01,2013-08-06 10:04:00,
2013-08-06 06:09:00,66.3,64.8,30.00,SE,138,0.0,0.0,95,0.00,,---,0.00,0.00,VWS V14.01,2013-08-06 10:09:00,
2013-08-06 06:14:00,66.2,64.7,30.00,SE,138,0.0,0.0,95,0.00,,---,0.00,0.00,VWS V14.01,2013-08-06 10:14:00,
2013-08-06 06:19:00,66.2,64.7,30.01,SE,138,0.0,0.0,95,0.00,,---,0.00,0.00,VWS V14.01,2013-08-06 10:19:00,
2013-08-06 06:24:00,66.1,64.6,30.01,SE,138,0.0,0.0,95,0.00,,---,0.00,0.00,VWS V14.01,2013-08-06 10:24:00,
2013-08-06 06:29:00,66.0,64.5,30.01,SE,138,0.0,0.0,95,0.00,,---,0.00,0.00,VWS V14.01,2013-08-06 10:29:00,
2013-08-06 06:30:00,66.0,64.5,30.01,SE,138,0.0,0.0,95,0.00,,---,0.00,0.00,VWS V14.01,2013-08-06 10:30:00,
2013-08-06 06:35:00,66.0,64.5,30.01,SE,138,0.0,0.0,95,0.00,,---,0.00,0.00,VWS V14.01,2013-08-06 10:35:00,
2013-08-06 06:40:00,65.9,64.4,30.01,SE,138,0.0,0.0,95,0.00,,---,0.00,0.00,VWS V14.01,2013-08-06 10:40:00,
2013-08-06 06:45:00,65.8,64.3,30.02,SE,138,0.0,0.0,95,0.00,,---,0.00,0.00,VWS V14.01,2013-08-06 10:45:00,
2013-08-06 06:50:00,65.8,64.3,30.02,SE,129,0.0,0.0,95,0.00,,---,0.00,5.00,VWS V14.01,2013-08-06 10:50:00,
2013-08-06 06:55:00,65.7,64.2,30.02,SE,129,0.0,0.0,95,0.00,,---,0.00,9.00,VWS V14.01,2013-08-06 10:55:00,
2013-08-06 07:00:00,65.7,64.2,30.02,SE,129,0.0,0.0,95,0.00,,---,0.00,14.00,VWS V14.01,2013-08-06 11:00:00,
2013-08-06 07:05:00,65.7,64.2,30.02,SE,129,0.0,0.0,95,0.00,,---,0.00,18.00,VWS V14.01,2013-08-06 11:05:00,
2013-08-06 07:10:00,65.7,64.2,30.02,SSE,159,0.0,3.0,95,0.00,,---,0.00,26.00,VWS V14.01,2013-08-06 11:10:00,
2013-08-06 07:15:00,65.7,64.2,30.02,SSE,159,0.0,3.0,95,0.00,,---,0.00,21.00,VWS V14.01,2013-08-06 11:15:00,
2013-08-06 07:21:00,65.7,64.5,30.02,SE,136,0.0,3.0,96,0.00,,---,0.00,19.00,VWS V14.01,2013-08-06 11:21:00,
2013-08-06 07:26:00,65.7,64.5,30.02,SE,136,0.0,3.0,96,0.00,,---,0.00,18.00,VWS V14.01,2013-08-06 11:26:00,
2013-08-06 07:30:00,65.7,64.5,30.02,East,87,0.0,3.0,96,0.00,,---,0.00,26.00,VWS V14.01,2013-08-06 11:30:00,
2013-08-06 07:31:00,65.7,64.5,30.02,SE,128,0.0,3.0,96,0.00,,---,0.00,25.00,VWS V14.01,2013-08-06 11:31:00,
2013-08-06 07:36:00,65.7,64.5,30.02,East,87,0.0,1.0,96,0.00,,---,0.00,32.00,VWS V14.01,2013-08-06 11:36:00,
2013-08-06 07:41:00,65.8,64.6,30.02,ENE,61,0.0,2.0,96,0.00,,---,0.00,32.00,VWS V14.01,2013-08-06 11:41:00,
2013-08-06 07:46:00,65.7,64.5,30.02,SE,140,1.0,2.0,96,0.00,,---,0.00,42.00,VWS V14.01,2013-08-06 11:46:00,
2013-08-06 07:51:00,65.7,64.5,30.02,SE,142,0.0,4.0,96,0.00,,---,0.00,60.00,VWS V14.01,2013-08-06 11:51:00,
2013-08-06 07:56:00,65.8,64.6,30.03,SSE,149,0.0,4.0,96,0.00,,---,0.00,70.00,VWS V14.01,2013-08-06 11:56:00,
2013-08-06 08:00:00,65.9,64.7,30.03,SSE,164,0.0,4.0,96,0.00,,---,0.00,42.00,VWS V14.01,2013-08-06 12:00:00,
2013-08-06 08:01:00,65.9,64.7,30.03,SSE,164,0.0,4.0,96,0.00,,---,0.00,67.00,VWS V14.01,2013-08-06 12:01:00,
2013-08-06 08:06:00,65.9,64.7,30.04,SE,146,0.0,1.0,96,0.00,,---,0.00,56.00,VWS V14.01,2013-08-06 12:06:00,
2013-08-06 08:12:00,66.0,64.8,30.04,South,173,0.0,3.0,96,0.00,,---,0.00,111.00,VWS V14.01,2013-08-06 12:12:00,
2013-08-06 08:17:00,66.1,64.9,30.04,SE,140,0.0,3.0,96,0.00,,---,0.00,116.00,VWS V14.01,2013-08-06 12:17:00,
2013-08-06 08:22:00,66.3,65.1,30.04,SSW,194,0.0,3.0,96,0.00,,---,0.00,51.00,VWS V14.01,2013-08-06 12:22:00,
2013-08-06 08:27:00,66.3,65.1,30.04,SSW,194,0.0,3.0,96,0.00,,---,0.00,33.00,VWS V14.01,2013-08-06 12:27:00,
2013-08-06 08:30:00,66.4,64.9,30.04,SE,144,1.0,5.0,95,0.00,,---,0.00,54.00,VWS V14.01,2013-08-06 12:30:00,
2013-08-06 08:32:00,66.4,64.9,30.04,South,190,0.0,5.0,95,0.00,,---,0.00,49.00,VWS V14.01,2013-08-06 12:32:00,
2013-08-06 08:37:00,66.4,64.9,30.04,SE,125,0.0,3.0,95,0.00,,---,0.00,77.00,VWS V14.01,2013-08-06 12:37:00,
2013-08-06 08:42:00,66.5,65.0,30.04,South,175,0.0,3.0,95,0.00,,---,0.00,88.00,VWS V14.01,2013-08-06 12:42:00,
2013-08-06 08:47:00,66.6,65.1,30.04,SSE,165,0.0,5.0,95,0.00,,---,0.00,114.00,VWS V14.01,2013-08-06 12:47:00,
2013-08-06 08:52:00,66.7,65.2,30.04,SE,138,0.0,5.0,95,0.00,,---,0.00,142.00,VWS V14.01,2013-08-06 12:52:00,
2013-08-06 08:57:00,66.9,65.4,30.04,SSW,195,0.0,5.0,95,0.00,,---,0.00,151.00,VWS V14.01,2013-08-06 12:57:00,
2013-08-06 09:00:00,67.2,65.4,30.04,East,90,2.0,5.0,94,0.00,,---,0.00,107.00,VWS V14.01,2013-08-06 13:00:00,
2013-08-06 09:02:00,67.2,65.4,30.04,SSW,196,0.0,5.0,94,0.00,,---,0.00,81.00,VWS V14.01,2013-08-06 13:02:00,
2013-08-06 09:07:00,67.5,65.7,30.04,SSE,150,2.0,4.0,94,0.00,,---,0.00,171.00,VWS V14.01,2013-08-06 13:07:00,
2013-08-06 09:13:00,67.7,65.6,30.04,NNW,346,0.0,4.0,93,0.00,,---,0.00,199.00,VWS V14.01,2013-08-06 13:13:00,
2013-08-06 09:18:00,67.8,65.7,30.04,NNW,346,0.0,4.0,93,0.00,,---,0.00,141.00,VWS V14.01,2013-08-06 13:18:00,
2013-08-06 09:23:00,68.0,65.9,30.04,NNW,346,0.0,4.0,93,0.00,,---,0.00,186.00,VWS V14.01,2013-08-06 13:23:00,
2013-08-06 09:28:00,68.4,66.0,30.04,North,355,0.0,4.0,92,0.00,,---,0.00,480.00,VWS V14.01,2013-08-06 13:28:00,
2013-08-06 09:30:00,68.8,66.1,30.04,SSW,193,0.0,4.0,91,0.00,,---,0.00,475.00,VWS V14.01,2013-08-06 13:30:00,
2013-08-06 09:33:00,68.8,66.4,30.04,SSW,193,0.0,4.0,92,0.00,,---,0.00,475.00,VWS V14.01,2013-08-06 13:33:00,
2013-08-06 09:38:00,69.4,66.7,30.04,East,84,0.0,1.0,91,0.00,,---,0.00,608.00,VWS V14.01,2013-08-06 13:38:00,
2013-08-06 09:43:00,70.2,66.8,30.04,SSE,160,0.0,2.0,89,0.00,,---,0.00,148.00,VWS V14.01,2013-08-06 13:43:00,
2013-08-06 09:48:00,70.6,66.6,30.04,SSE,160,0.0,2.0,87,0.00,,---,0.00,165.00,VWS V14.01,2013-08-06 13:48:00,
2013-08-06 09:53:00,71.1,67.0,30.04,SSE,160,0.0,2.0,87,0.00,,---,0.00,624.00,VWS V14.01,2013-08-06 13:53:00,
2013-08-06 09:58:00,71.7,66.9,30.04,SSE,160,0.0,3.0,85,0.00,,---,0.00,606.00,VWS V14.01,2013-08-06 13:58:00,
2013-08-06 10:00:00,72.2,67.1,30.05,SSE,147,0.0,3.0,84,0.00,,---,0.00,589.00,VWS V14.01,2013-08-06 14:00:00,
2013-08-06 10:03:00,72.2,67.1,30.05,SSE,147,0.0,3.0,84,0.00,,---,0.00,589.00,VWS V14.01,2013-08-06 14:03:00,
2013-08-06 10:08:00,72.7,66.9,30.05,SSE,167,0.0,5.0,82,0.00,,---,0.00,657.00,VWS V14.01,2013-08-06 14:08:00,
2013-08-06 10:13:00,73.3,67.5,30.05,SE,133,0.0,5.0,82,0.00,,---,0.00,712.00,VWS V14.01,2013-08-06 14:13:00,
2013-08-06 10:19:00,73.8,66.9,30.05,SSW,198,0.0,5.0,79,0.00,,---,0.00,712.00,VWS V14.01,2013-08-06 14:19:00,
2013-08-06 10:24:00,74.0,66.7,30.05,SSE,167,0.0,5.0,78,0.00,,---,0.00,248.00,VWS V14.01,2013-08-06 14:24:00,
2013-08-06 10:29:00,74.0,66.7,30.05,South,180,0.0,5.0,78,0.00,,---,0.00,362.00,VWS V14.01,2013-08-06 14:29:00,
2013-08-06 10:30:00,74.0,67.1,30.05,South,180,0.0,5.0,79,0.00,,---,0.00,185.00,VWS V14.01,2013-08-06 14:30:00,
2013-08-06 10:34:00,74.0,67.1,30.05,South,180,0.0,0.0,79,0.00,,---,0.00,185.00,VWS V14.01,2013-08-06 14:34:00,
2013-08-06 10:39:00,73.9,67.0,30.05,South,180,0.0,0.0,79,0.00,,---,0.00,181.00,VWS V14.01,2013-08-06 14:39:00,
2013-08-06 10:44:00,73.7,66.8,30.05,ESE,107,0.0,3.0,79,0.00,,---,0.00,127.00,VWS V14.01,2013-08-06 14:44:00,
2013-08-06 10:49:00,73.4,66.5,30.05,ESE,104,0.0,3.0,79,0.00,,---,0.00,221.00,VWS V14.01,2013-08-06 14:49:00,
2013-08-06 10:54:00,73.1,66.9,30.05,ESE,104,0.0,3.0,81,0.00,,---,0.00,343.00,VWS V14.01,2013-08-06 14:54:00,
2013-08-06 10:59:00,73.0,67.2,30.05,ESE,104,0.0,3.0,82,0.00,,---,0.00,172.00,VWS V14.01,2013-08-06 14:59:00,
2013-08-06 11:00:00,73.0,66.5,30.05,ESE,104,0.0,3.0,80,0.00,,---,0.00,84.00,VWS V14.01,2013-08-06 15:00:00,
2013-08-06 11:04:00,73.0,66.5,30.05,ESE,104,0.0,0.0,80,0.00,,---,0.00,74.00,VWS V14.01,2013-08-06 15:04:00,
2013-08-06 11:09:00,73.0,66.8,30.06,ESE,104,0.0,0.0,81,0.00,,---,0.00,193.00,VWS V14.01,2013-08-06 15:09:00,
2013-08-06 11:14:00,73.0,66.8,30.05,ENE,77,0.0,2.0,81,0.00,,---,0.00,445.00,VWS V14.01,2013-08-06 15:14:00,
2013-08-06 11:20:00,73.0,67.2,30.05,South,182,0.0,2.0,82,0.00,,---,0.00,410.00,VWS V14.01,2013-08-06 15:20:00,
2013-08-06 11:25:00,73.2,66.3,30.06,SE,135,0.0,2.0,79,0.00,,---,0.00,425.00,VWS V14.01,2013-08-06 15:25:00,
2013-08-06 11:30:00,73.5,66.6,30.06,SE,135,0.0,2.0,79,0.00,,---,0.00,668.00,VWS V14.01,2013-08-06 15:30:00,
2013-08-06 11:35:00,73.9,67.0,30.05,SSW,196,0.0,0.0,79,0.00,,---,0.00,378.00,VWS V14.01,2013-08-06 15:35:00,
2013-08-06 11:40:00,74.4,67.1,30.05,East,80,0.0,1.0,78,0.00,,---,0.00,369.00,VWS V14.01,2013-08-06 15:40:00,
2013-08-06 11:45:00,74.7,67.0,30.05,SE,138,0.0,1.0,77,0.00,,---,0.00,459.00,VWS V14.01,2013-08-06 15:45:00,
2013-08-06 11:50:00,75.1,67.4,30.05,NNE,31,0.0,1.0,77,0.00,,---,0.00,352.00,VWS V14.01,2013-08-06 15:50:00,
2013-08-06 11:55:00,75.3,68.0,30.05,NNE,24,0.0,1.0,78,0.00,,---,0.00,446.00,VWS V14.01,2013-08-06 15:55:00,
2013-08-06 12:00:00,75.2,67.5,30.05,SE,140,0.0,1.0,77,0.00,,---,0.00,536.00,VWS V14.01,2013-08-06 16:00:00,
2013-08-06 12:05:00,75.5,67.8,30.05,ENE,78,0.0,1.0,77,0.00,,---,0.00,482.00,VWS V14.01,2013-08-06 16:05:00,
2013-08-06 12:10:00,75.4,68.1,30.05,NE,49,0.0,1.0,78,0.00,,---,0.00,443.00,VWS V14.01,2013-08-06 16:10:00,
2013-08-06 12:15:00,75.5,67.8,30.05,WSW,242,0.0,4.0,77,0.00,,---,0.00,455.00,VWS V14.01,2013-08-06 16:15:00,
2013-08-06 12:20:00,75.7,67.2,30.04,NE,39,0.0,4.0,75,0.00,,---,0.00,515.00,VWS V14.01,2013-08-06 16:20:00,
2013-08-06 12:25:00,75.6,66.3,30.04,South,173,0.0,4.0,73,0.00,,---,0.00,499.00,VWS V14.01,2013-08-06 16:25:00,
2013-08-06 12:30:00,75.7,66.8,30.05,SSE,168,0.0,4.0,74,0.00,,---,0.00,436.00,VWS V14.01,2013-08-06 16:30:00,
2013-08-06 12:35:00,76.0,66.7,30.04,SSW,194,0.0,4.0,73,0.00,,---,0.00,420.00,VWS V14.01,2013-08-06 16:35:00,
2013-08-06 12:40:00,76.0,66.7,30.05,ESE,106,0.0,4.0,73,0.00,,---,0.00,431.00,VWS V14.01,2013-08-06 16:40:00,
2013-08-06 12:45:00,76.0,67.5,30.05,ENE,76,0.0,4.0,75,0.00,,---,0.00,454.00,VWS V14.01,2013-08-06 16:45:00,
2013-08-06 12:50:00,76.2,67.7,30.05,NNW,328,0.0,4.0,75,0.00,,---,0.00,446.00,VWS V14.01,2013-08-06 16:50:00,
2013-08-06 12:56:00,76.3,68.2,30.05,ENE,65,0.0,4.0,76,0.00,,---,0.00,355.00,VWS V14.01,2013-08-06 16:56:00,
2013-08-06 13:00:00,76.1,67.6,30.05,WNW,282,0.0,4.0,75,0.00,,---,0.00,392.00,VWS V14.01,2013-08-06 17:00:00,
2013-08-06 13:01:00,76.2,67.7,30.05,East,96,0.0,4.0,75,0.00,,---,0.00,308.00,VWS V14.01,2013-08-06 17:01:00,
2013-08-06 13:06:00,76.0,67.9,30.04,SSE,163,0.0,4.0,76,0.00,,---,0.00,485.00,VWS V14.01,2013-08-06 17:06:00,
2013-08-06 13:11:00,76.0,68.3,30.04,South,169,0.0,4.0,77,0.00,,---,0.00,575.00,VWS V14.01,2013-08-06 17:11:00,
2013-08-06 13:16:00,76.5,69.1,30.04,WSW,250,0.0,4.0,78,0.00,,---,0.00,585.00,VWS V14.01,2013-08-06 17:16:00,
2013-08-06 13:21:00,76.5,68.4,30.04,ESE,109,0.0,4.0,76,0.00,,---,0.00,555.00,VWS V14.01,2013-08-06 17:21:00,
2013-08-06 13:26:00,76.5,68.0,30.03,SSW,211,0.0,4.0,75,0.00,,---,0.00,545.00,VWS V14.01,2013-08-06 17:26:00,
2013-08-06 13:27:00,76.6,68.1,30.04,SSW,211,0.0,4.0,75,0.00,,---,0.00,561.00,VWS V14.01,2013-08-06 17:27:00,
2013-08-06 13:30:00,77.0,68.1,30.03,WSW,240,0.0,4.0,74,0.00,,---,0.00,599.00,VWS V14.01,2013-08-06 17:30:00,
2013-08-06 13:32:00,76.9,68.4,30.03,NNW,340,0.0,4.0,75,0.00,,---,0.00,582.00,VWS V14.01,2013-08-06 17:32:00,
2013-08-06 13:37:00,77.2,67.9,30.03,WNW,290,1.0,6.0,73,0.00,,---,0.00,629.00,VWS V14.01,2013-08-06 17:37:00,
2013-08-06 13:42:00,77.2,67.9,30.03,SSE,149,0.0,6.0,73,0.00,,---,0.00,538.00,VWS V14.01,2013-08-06 17:42:00,
2013-08-06 13:47:00,77.1,68.2,30.03,East,95,0.0,6.0,74,0.00,,---,0.00,563.00,VWS V14.01,2013-08-06 17:47:00,
2013-08-06 13:53:00,76.9,68.4,30.04,SSE,150,0.0,6.0,75,0.00,,---,0.00,504.00,VWS V14.01,2013-08-06 17:53:00,
2013-08-06 13:58:00,77.0,67.7,30.04,SE,128,0.0,6.0,73,0.00,,---,0.00,431.00,VWS V14.01,2013-08-06 17:58:00,
2013-08-06 14:00:00,76.7,68.2,30.04,East,81,0.0,6.0,75,0.00,,---,0.00,671.00,VWS V14.01,2013-08-06 18:00:00,
2013-08-06 14:03:00,76.7,68.2,30.04,North,355,0.0,6.0,75,0.00,,---,0.00,671.00,VWS V14.01,2013-08-06 18:03:00,
2013-08-06 14:08:00,76.7,68.6,30.04,NNE,17,0.0,5.0,76,0.00,,---,0.00,568.00,VWS V14.01,2013-08-06 18:08:00,
2013-08-06 14:13:00,76.8,68.7,30.04,ENE,66,0.0,5.0,76,0.00,,---,0.00,513.00,VWS V14.01,2013-08-06 18:13:00,
2013-08-06 14:18:00,76.7,68.6,30.04,SE,132,0.0,5.0,76,0.00,,---,0.00,475.00,VWS V14.01,2013-08-06 18:18:00,
2013-08-06 14:23:00,77.0,68.1,30.04,South,188,0.0,5.0,74,0.00,,---,0.00,512.00,VWS V14.01,2013-08-06 18:23:00,
2013-08-06 14:28:00,77.1,68.6,30.04,ESE,103,0.0,5.0,75,0.00,,---,0.00,561.00,VWS V14.01,2013-08-06 18:28:00,
2013-08-06 14:30:00,77.3,68.8,30.04,SSE,162,0.0,5.0,75,0.00,,---,0.00,522.00,VWS V14.01,2013-08-06 18:30:00,
2013-08-06 14:33:00,77.3,68.8,30.04,SSE,162,0.0,5.0,75,0.00,,---,0.00,522.00,VWS V14.01,2013-08-06 18:33:00,
2013-08-06 14:38:00,77.5,68.6,30.03,ESE,113,0.0,3.0,74,0.00,,---,0.00,283.00,VWS V14.01,2013-08-06 18:38:00,
2013-08-06 14:43:00,77.3,68.0,30.03,ESE,107,0.0,3.0,73,0.00,,---,0.00,288.00,VWS V14.01,2013-08-06 18:43:00,
2013-08-06 14:48:00,77.0,68.5,30.03,SSE,159,0.0,5.0,75,0.00,,---,0.00,452.00,VWS V14.01,2013-08-06 18:48:00,
2013-08-06 14:53:00,77.1,68.2,30.03,South,178,0.0,5.0,74,0.00,,---,0.00,272.00,VWS V14.01,2013-08-06 18:53:00,
2013-08-06 14:58:00,77.1,68.2,30.03,ENE,76,0.0,5.0,74,0.00,,---,0.00,387.00,VWS V14.01,2013-08-06 18:58:00,
2013-08-06 15:00:00,76.6,68.1,30.03,ESE,113,0.0,5.0,75,0.00,,---,0.00,578.00,VWS V14.01,2013-08-06 19:00:00,
2013-08-06 15:03:00,76.6,68.1,30.03,ENE,77,2.0,2.0,75,0.00,,---,0.00,578.00,VWS V14.01,2013-08-06 19:03:00,
2013-08-06 15:09:00,76.5,68.8,30.03,South,174,3.0,4.0,77,0.00,,---,0.00,320.00,VWS V14.01,2013-08-06 19:09:00,
2013-08-06 15:14:00,76.6,68.1,30.03,South,169,0.0,4.0,75,0.00,,---,0.00,292.00,VWS V14.01,2013-08-06 19:14:00,
2013-08-06 15:19:00,76.6,68.5,30.03,South,182,0.0,4.0,76,0.00,,---,0.00,295.00,VWS V14.01,2013-08-06 19:19:00,
2013-08-06 15:24:00,76.6,68.1,30.03,SW,234,0.0,5.0,75,0.00,,---,0.00,320.00,VWS V14.01,2013-08-06 19:24:00,
2013-08-06 15:29:00,76.5,68.8,30.02,SE,146,0.0,5.0,77,0.00,,---,0.00,345.00,VWS V14.01,2013-08-06 19:29:00,
2013-08-06 15:30:00,76.2,68.5,30.02,ENE,73,0.0,5.0,77,0.00,,---,0.00,283.00,VWS V14.01,2013-08-06 19:30:00,
2013-08-06 15:34:00,76.2,68.8,30.02,ENE,73,0.0,1.0,78,0.00,,---,0.00,260.00,VWS V14.01,2013-08-06 19:34:00,
2013-08-06 15:39:00,76.4,69.0,30.02,NNW,346,0.0,4.0,78,0.00,,---,0.00,928.00,VWS V14.01,2013-08-06 19:39:00,
2013-08-06 15:44:00,76.5,68.8,30.02,NNE,31,0.0,6.0,77,0.00,,---,0.00,294.00,VWS V14.01,2013-08-06 19:44:00,
2013-08-06 15:49:00,76.5,68.4,30.02,ESE,105,0.0,6.0,76,0.00,,---,0.00,248.00,VWS V14.01,2013-08-06 19:49:00,
2013-08-06 15:54:00,76.6,68.5,30.02,South,182,0.0,6.0,76,0.00,,---,0.00,200.00,VWS V14.01,2013-08-06 19:54:00,
2013-08-06 15:59:00,76.6,68.9,30.02,South,184,0.0,6.0,77,0.00,,---,0.00,274.00,VWS V14.01,2013-08-06 19:59:00,
2013-08-06 16:00:00,76.4,68.3,30.02,East,84,0.0,6.0,76,0.00,,---,0.00,302.00,VWS V14.01,2013-08-06 20:00:00,
2013-08-06 16:04:00,76.2,68.5,30.02,ESE,111,0.0,0.0,77,0.00,,---,0.00,302.00,VWS V14.01,2013-08-06 20:04:00,
2013-08-06 16:09:00,76.1,69.1,30.02,NE,44,0.0,4.0,79,0.00,,---,0.00,285.00,VWS V14.01,2013-08-06 20:09:00,
2013-08-06 16:14:00,76.3,68.9,30.02,West,272,0.0,4.0,78,0.00,,---,0.00,520.00,VWS V14.01,2013-08-06 20:14:00,
2013-08-06 16:20:00,76.2,68.5,30.02,ESE,104,0.0,4.0,77,0.00,,---,0.00,267.00,VWS V14.01,2013-08-06 20:20:00,
2013-08-06 16:25:00,76.0,68.7,30.01,ESE,122,0.0,4.0,78,0.00,,---,0.00,327.00,VWS V14.01,2013-08-06 20:25:00,
2013-08-06 16:30:00,75.9,68.6,30.01,SE,142,0.0,4.0,78,0.00,,---,0.00,199.00,VWS V14.01,2013-08-06 20:30:00,
2013-08-06 16:32:00,75.9,68.6,30.01,East,93,0.0,4.0,78,0.00,,---,0.00,471.00,VWS V14.01,2013-08-06 20:32:00,
2013-08-06 16:37:00,75.8,68.5,30.02,SSW,208,0.0,3.0,78,0.00,,---,0.00,139.00,VWS V14.01,2013-08-06 20:37:00,
2013-08-06 16:42:00,75.7,69.1,30.02,ESE,119,0.0,3.0,80,0.00,,---,0.00,360.00,VWS V14.01,2013-08-06 20:42:00,
2013-08-06 16:47:00,75.4,68.8,30.02,SSE,159,0.0,6.0,80,0.00,,---,0.00,174.00,VWS V14.01,2013-08-06 20:47:00,
2013-08-06 16:52:00,75.3,68.7,30.02,East,88,0.0,6.0,80,0.00,,---,0.00,193.00,VWS V14.01,2013-08-06 20:52:00,
2013-08-06 16:57:00,75.1,68.5,30.02,NW,313,3.0,6.0,80,0.00,,---,0.00,167.00,VWS V14.01,2013-08-06 20:57:00,
2013-08-06 17:00:00,74.8,68.2,30.02,ESE,115,0.0,6.0,80,0.00,,---,0.00,311.00,VWS V14.01,2013-08-06 21:00:00,
2013-08-06 17:02:00,74.9,68.3,30.02,East,96,2.0,6.0,80,0.00,,---,0.00,311.00,VWS V14.01,2013-08-06 21:02:00,
2013-08-06 17:07:00,74.8,68.6,30.02,SW,220,0.0,1.0,81,0.00,,---,0.00,371.00,VWS V14.01,2013-08-06 21:07:00,
2013-08-06 17:12:00,75.0,68.8,30.02,NE,49,0.0,1.0,81,0.00,,---,0.00,279.00,VWS V14.01,2013-08-06 21:12:00,
2013-08-06 17:17:00,75.0,68.8,30.02,ENE,60,0.0,3.0,81,0.00,,---,0.00,487.00,VWS V14.01,2013-08-06 21:17:00,
2013-08-06 17:23:00,74.9,69.0,30.02,East,97,0.0,6.0,82,0.00,,---,0.00,283.00,VWS V14.01,2013-08-06 21:23:00,
2013-08-06 17:28:00,75.3,69.1,30.02,WSW,241,0.0,6.0,81,0.00,,---,0.00,385.00,VWS V14.01,2013-08-06 21:28:00,
2013-08-06 17:30:00,75.4,68.8,30.02,South,174,0.0,6.0,80,0.00,,---,0.00,230.00,VWS V14.01,2013-08-06 21:30:00,
2013-08-06 17:33:00,75.4,68.8,30.02,South,174,0.0,6.0,80,0.00,,---,0.00,230.00,VWS V14.01,2013-08-06 21:33:00,
2013-08-06 17:38:00,75.4,68.4,30.02,SW,222,0.0,7.0,79,0.00,,---,0.00,153.00,VWS V14.01,2013-08-06 21:38:00,
2013-08-06 17:43:00,75.2,68.6,30.02,SW,215,0.0,7.0,80,0.00,,---,0.00,134.00,VWS V14.01,2013-08-06 21:43:00,
2013-08-06 17:48:00,75.0,68.4,30.02,NE,54,0.0,7.0,80,0.00,,---,0.00,155.00,VWS V14.01,2013-08-06 21:48:00,
2013-08-06 17:53:00,74.6,68.4,30.02,SSE,150,0.0,7.0,81,0.00,,---,0.00,155.00,VWS V14.01,2013-08-06 21:53:00,
2013-08-06 17:58:00,74.4,68.2,30.02,ENE,76,0.0,7.0,81,0.00,,---,0.00,141.00,VWS V14.01,2013-08-06 21:58:00,
2013-08-06 18:00:00,74.1,68.3,30.03,NE,49,0.0,7.0,82,0.00,,---,0.00,197.00,VWS V14.01,2013-08-06 22:00:00,
2013-08-06 18:03:00,74.1,68.3,30.03,NE,49,0.0,7.0,82,0.00,,---,0.00,197.00,VWS V14.01,2013-08-06 22:03:00,
2013-08-06 18:08:00,73.9,68.4,30.02,ESE,102,1.0,5.0,83,0.00,,---,0.00,144.00,VWS V14.01,2013-08-06 22:08:00,
2013-08-06 18:13:00,73.6,67.8,30.03,East,98,0.0,6.0,82,0.00,,---,0.00,111.00,VWS V14.01,2013-08-06 22:13:00,
2013-08-06 18:19:00,73.3,67.8,30.03,NE,56,0.0,6.0,83,0.00,,---,0.00,116.00,VWS V14.01,2013-08-06 22:19:00,
2013-08-06 18:24:00,73.0,67.5,30.03,SW,224,0.0,6.0,83,0.00,,---,0.00,100.00,VWS V14.01,2013-08-06 22:24:00,
2013-08-06 18:29:00,72.9,67.8,30.03,ESE,119,0.0,6.0,84,0.00,,---,0.00,109.00,VWS V14.01,2013-08-06 22:29:00,
2013-08-06 18:30:00,72.7,67.6,30.03,NW,311,0.0,6.0,84,0.00,,---,0.00,104.00,VWS V14.01,2013-08-06 22:30:00,
2013-08-06 18:34:00,72.7,67.6,30.03,NW,311,0.0,0.0,84,0.00,,---,0.00,107.00,VWS V14.01,2013-08-06 22:34:00,
2013-08-06 18:39:00,72.5,67.7,30.03,ENE,76,2.0,5.0,85,0.00,,---,0.00,88.00,VWS V14.01,2013-08-06 22:39:00,
2013-08-06 18:44:00,72.3,67.5,30.03,East,92,0.0,5.0,85,0.00,,---,0.00,72.00,VWS V14.01,2013-08-06 22:44:00,
2013-08-06 18:49:00,72.2,67.4,30.03,SSE,157,5.0,6.0,85,0.00,,---,0.00,84.00,VWS V14.01,2013-08-06 22:49:00,
2013-08-06 18:54:00,72.0,67.6,30.02,West,263,3.0,6.0,86,0.00,,---,0.00,86.00,VWS V14.01,2013-08-06 22:54:00,
2013-08-06 18:59:00,71.9,67.5,30.03,ESE,121,0.0,6.0,86,0.00,,---,0.00,70.00,VWS V14.01,2013-08-06 22:59:00,
2013-08-06 19:00:00,71.7,67.3,30.03,ENE,66,0.0,6.0,86,0.00,,---,0.00,56.00,VWS V14.01,2013-08-06 23:00:00,
2013-08-06 19:05:00,71.6,67.2,30.03,ENE,66,0.0,0.0,86,0.00,,---,0.00,53.00,VWS V14.01,2013-08-06 23:05:00,
2013-08-06 19:10:00,71.5,67.1,30.03,SSW,204,0.0,4.0,86,0.00,,---,0.00,47.00,VWS V14.01,2013-08-06 23:10:00,
2013-08-06 19:15:00,71.3,67.2,30.04,SSE,167,0.0,4.0,87,0.00,,---,0.00,54.00,VWS V14.01,2013-08-06 23:15:00,
2013-08-06 19:20:00,71.2,67.1,30.04,SE,138,0.0,8.0,87,0.00,,---,0.00,49.00,VWS V14.01,2013-08-06 23:20:00,
2013-08-06 19:25:00,71.0,66.9,30.04,SSE,161,0.0,8.0,87,0.00,,---,0.00,35.00,VWS V14.01,2013-08-06 23:25:00,
2013-08-06 19:30:00,70.8,66.7,30.04,SSE,155,0.0,8.0,87,0.00,,---,0.00,26.00,VWS V14.01,2013-08-06 23:30:00,
2013-08-06 19:35:00,70.7,66.7,30.04,SE,142,0.0,4.0,87,0.00,,---,0.00,32.00,VWS V14.01,2013-08-06 23:35:00,
2013-08-06 19:40:00,70.4,66.7,30.04,South,174,0.0,4.0,88,0.00,,---,0.00,26.00,VWS V14.01,2013-08-06 23:40:00,
2013-08-06 19:45:00,70.3,66.6,30.04,SSE,148,0.0,4.0,88,0.00,,---,0.00,25.00,VWS V14.01,2013-08-06 23:45:00,
2013-08-06 19:50:00,70.1,66.4,30.04,East,84,0.0,4.0,88,0.00,,---,0.00,25.00,VWS V14.01,2013-08-06 23:50:00,
2013-08-06 19:55:00,70.0,66.6,30.05,SE,144,0.0,4.0,89,0.00,,---,0.00,23.00,VWS V14.01,2013-08-06 23:55:00,
2013-08-06 20:00:00,69.9,66.5,30.04,ENE,73,0.0,4.0,89,0.00,,---,0.00,23.00,VWS V14.01,2013-08-07 00:00:00,
2013-08-06 20:05:00,69.8,66.7,30.04,East,100,0.0,0.0,90,0.00,,---,0.00,14.00,VWS V14.01,2013-08-07 00:05:00,
2013-08-06 20:10:00,69.7,66.6,30.04,East,87,0.0,2.0,90,0.00,,---,0.00,7.00,VWS V14.01,2013-08-07 00:10:00,
2013-08-06 20:15:00,69.5,66.4,30.04,ESE,111,0.0,3.0,90,0.00,,---,0.00,5.00,VWS V14.01,2013-08-07 00:15:00,
2013-08-06 20:20:00,69.5,66.4,30.04,SSE,159,0.0,3.0,90,0.00,,---,0.00,0.00,VWS V14.01,2013-08-07 00:20:00,
2013-08-06 20:26:00,69.4,66.7,30.05,SSE,159,0.0,3.0,91,0.00,,---,0.00,0.00,VWS V14.01,2013-08-07 00:26:00,
2013-08-06 20:30:00,69.3,66.6,30.05,SSW,200,0.0,4.0,91,0.00,,---,0.00,0.00,VWS V14.01,2013-08-07 00:30:00,
2013-08-06 20:31:00,69.3,66.6,30.05,SSW,200,0.0,4.0,91,0.00,,---,0.00,0.00,VWS V14.01,2013-08-07 00:31:00,
2013-08-06 20:36:00,69.3,66.6,30.04,ESE,119,0.0,1.0,91,0.00,,---,0.00,0.00,VWS V14.01,2013-08-07 00:36:00,
2013-08-06 20:41:00,69.2,66.5,30.04,South,177,0.0,2.0,91,0.00,,---,0.00,0.00,VWS V14.01,2013-08-07 00:41:00,
2013-08-06 20:46:00,69.2,66.8,30.04,WSW,254,0.0,3.0,92,0.00,,---,0.00,0.00,VWS V14.01,2013-08-07 00:46:00,
2013-08-06 20:51:00,69.2,66.8,30.05,SSE,147,0.0,3.0,92,0.00,,---,0.00,0.00,VWS V14.01,2013-08-07 00:51:00,
2013-08-06 20:56:00,69.2,66.8,30.05,SSW,202,0.0,3.0,92,0.00,,---,0.00,0.00,VWS V14.01,2013-08-07 00:56:00,
2013-08-06 21:00:00,69.2,66.8,30.05,SSW,202,0.0,3.0,92,0.00,,---,0.00,0.00,VWS V14.01,2013-08-07 01:00:00,
2013-08-06 21:01:00,69.2,66.8,30.05,SSW,202,0.0,3.0,92,0.00,,---,0.00,0.00,VWS V14.01,2013-08-07 01:01:00,
2013-08-06 21:06:00,69.2,66.8,30.05,SSW,202,0.0,0.0,92,0.00,,---,0.00,0.00,VWS V14.01,2013-08-07 01:06:00,
2013-08-06 21:11:00,69.1,66.7,30.05,East,94,0.0,1.0,92,0.00,,---,0.00,0.00,VWS V14.01,2013-08-07 01:11:00,
2013-08-06 21:16:00,69.1,66.7,30.06,East,90,0.0,4.0,92,0.00,,---,0.00,0.00,VWS V14.01,2013-08-07 01:16:00,
2013-08-06 21:22:00,69.1,66.7,30.06,East,94,0.0,4.0,92,0.00,,---,0.00,0.00,VWS V14.01,2013-08-07 01:22:00,
2013-08-06 21:27:00,69.1,66.7,30.06,ENE,60,0.0,4.0,92,0.00,,---,0.00,0.00,VWS V14.01,2013-08-07 01:27:00,
2013-08-06 21:30:00,69.0,66.6,30.05,ENE,66,0.0,4.0,92,0.00,,---,0.00,0.00,VWS V14.01,2013-08-07 01:30:00,
2013-08-06 21:31:00,69.1,66.7,30.05,ENE,66,0.0,4.0,92,0.00,,---,0.00,0.00,VWS V14.01,2013-08-07 01:31:00,
2013-08-06 21:37:00,69.0,66.6,30.06,SE,144,0.0,0.0,92,0.00,,---,0.00,0.00,VWS V14.01,2013-08-07 01:37:00,
2013-08-06 21:42:00,69.0,66.6,30.06,NE,45,0.0,1.0,92,0.00,,---,0.00,0.00,VWS V14.01,2013-08-07 01:42:00,
2013-08-06 21:47:00,68.9,66.5,30.05,SE,126,0.0,1.0,92,0.00,,---,0.00,0.00,VWS V14.01,2013-08-07 01:47:00,
2013-08-06 21:52:00,68.8,66.4,30.05,ENE,75,0.0,1.0,92,0.00,,---,0.00,0.00,VWS V14.01,2013-08-07 01:52:00,
2013-08-06 21:57:00,68.7,66.3,30.05,SSE,163,0.0,7.0,92,0.00,,---,0.00,0.00,VWS V14.01,2013-08-07 01:57:00,
2013-08-06 22:00:00,68.6,66.2,30.06,East,93,0.0,7.0,92,0.00,,---,0.00,0.00,VWS V14.01,2013-08-07 02:00:00,
2013-08-06 22:02:00,68.6,66.2,30.05,South,177,0.0,7.0,92,0.00,,---,0.00,0.00,VWS V14.01,2013-08-07 02:02:00,
2013-08-06 22:07:00,68.5,66.4,30.06,SE,142,0.0,5.0,93,0.00,,---,0.00,0.00,VWS V14.01,2013-08-07 02:07:00,
2013-08-06 22:12:00,68.5,66.4,30.06,West,262,0.0,5.0,93,0.00,,---,0.00,0.00,VWS V14.01,2013-08-07 02:12:00,
2013-08-06 22:18:00,68.5,66.4,30.05,SSE,164,0.0,5.0,93,0.00,,---,0.00,0.00,VWS V14.01,2013-08-07 02:18:00,
2013-08-06 22:23:00,68.4,66.3,30.06,SW,225,0.0,5.0,93,0.00,,---,0.00,0.00,VWS V14.01,2013-08-07 02:23:00,
2013-08-06 22:28:00,68.4,66.3,30.06,SSE,162,0.0,6.0,93,0.00,,---,0.00,0.00,VWS V14.01,2013-08-07 02:28:00,
2013-08-06 22:30:00,68.4,66.3,30.06,SSW,213,0.0,6.0,93,0.00,,---,0.00,0.00,VWS V14.01,2013-08-07 02:30:00,
2013-08-06 22:33:00,68.4,66.3,30.06,West,268,3.0,6.0,93,0.00,,---,0.00,0.00,VWS V14.01,2013-08-07 02:33:00,
2013-08-06 22:38:00,68.4,66.3,30.06,South,174,0.0,1.0,93,0.00,,---,0.00,0.00,VWS V14.01,2013-08-07 02:38:00,
2013-08-06 22:43:00,68.3,66.2,30.06,SE,134,0.0,1.0,93,0.00,,---,0.00,0.00,VWS V14.01,2013-08-07 02:43:00,
2013-08-06 22:48:00,68.3,66.2,30.05,NE,34,0.0,1.0,93,0.00,,---,0.00,0.00,VWS V14.01,2013-08-07 02:48:00,
2013-08-06 22:53:00,68.3,66.2,30.06,SW,217,0.0,2.0,93,0.00,,---,0.00,0.00,VWS V14.01,2013-08-07 02:53:00,
2013-08-06 22:58:00,68.3,66.2,30.06,SSE,155,0.0,2.0,93,0.00,,---,0.00,0.00,VWS V14.01,2013-08-07 02:58:00,
2013-08-06 23:00:00,68.2,66.1,30.06,SW,229,0.0,2.0,93,0.00,,---,0.00,0.00,VWS V14.01,2013-08-07 03:00:00,
2013-08-06 23:03:00,68.2,66.1,30.06,SW,229,0.0,2.0,93,0.00,,---,0.00,0.00,VWS V14.01,2013-08-07 03:03:00,
2013-08-06 23:08:00,68.1,66.0,30.06,ENE,67,0.0,3.0,93,0.00,,---,0.00,0.00,VWS V14.01,2013-08-07 03:08:00,
2013-08-06 23:13:00,68.1,66.0,30.06,NW,321,0.0,5.0,93,0.00,,---,0.00,0.00,VWS V14.01,2013-08-07 03:13:00,
2013-08-06 23:19:00,68.1,66.0,30.06,ENE,69,0.0,5.0,93,0.00,,---,0.00,0.00,VWS V14.01,2013-08-07 03:19:00,
2013-08-06 23:24:00,68.1,66.0,30.06,ESE,115,0.0,5.0,93,0.00,,---,0.00,0.00,VWS V14.01,2013-08-07 03:24:00,
2013-08-06 23:29:00,68.0,65.9,30.07,SSE,150,0.0,5.0,93,0.00,,---,0.00,0.00,VWS V14.01,2013-08-07 03:29:00,
2013-08-06 23:30:00,67.9,65.8,30.07,SW,225,0.0,5.0,93,0.00,,---,0.00,0.00,VWS V14.01,2013-08-07 03:30:00,
2013-08-06 23:34:00,67.9,65.8,30.07,SW,225,0.0,0.0,93,0.00,,---,0.00,0.00,VWS V14.01,2013-08-07 03:34:00,
2013-08-06 23:39:00,67.9,65.8,30.06,SE,132,0.0,3.0,93,0.00,,---,0.00,0.00,VWS V14.01,2013-08-07 03:39:00,
2013-08-06 23:44:00,67.9,65.8,30.06,SE,132,0.0,3.0,93,0.00,,---,0.00,0.00,VWS V14.01,2013-08-07 03:44:00,
2013-08-06 23:49:00,67.9,65.8,30.07,SE,140,0.0,3.0,93,0.00,,---,0.00,0.00,VWS V14.01,2013-08-07 03:49:00,
2013-08-06 23:54:00,67.8,65.7,30.07,South,188,0.0,3.0,93,0.00,,---,0.00,0.00,VWS V14.01,2013-08-07 03:54:00,
2013-08-06 23:59:00,67.8,65.7,30.07,NE,46,0.0,3.0,93,0.00,,---,0.00,0.00,VWS V14.01,2013-08-07 03:59:00,